TimeEDT,TemperatureF,Dew PointF,Humidity,Sea Level PressureIn,VisibilityMPH,Wind Direction,Wind SpeedMPH,Gust SpeedMPH,PrecipitationIn,Events,Conditions,WindDirDegrees,DateUTC
12:53 AM,44.1,33.1,65,30.14,10.0,South,4.6,-,N/A,,Clear,190,2012-10-09 04:53:00
1:53 AM,44.1,33.1,65,30.13,10.0,South,4.6,-,N/A,,Clear,180,2012-10-09 05:53:00
2:53 AM,42.1,33.1,70,30.14,10.0,South,4.6,-,N/A,,Clear,170,2012-10-09 06:53:00
4:53 AM,44.1,34.0,68,30.11,10.0,SW,6.9,-,N/A,,Clear,230,2012-10-09 08:53:00
5:53 AM,44.1,34.0,68,30.12,10.0,SW,9.2,-,N/A,,Clear,230,2012-10-09 09:53:00
6:53 AM,42.1,33.1,70,30.12,10.0,SW,8.1,-,N/A,,Clear,220,2012-10-09 10:53:00
7:53 AM,42.1,34.0,73,30.13,10.0,Calm,Calm,-,N/A,,Clear,0,2012-10-09 11:53:00
8:53 AM,46.9,37.9,71,30.12,10.0,South,6.9,-,N/A,,Clear,180,2012-10-09 12:53:00
9:53 AM,48.9,39.0,69,30.12,10.0,SSW,9.2,-,N/A,,Clear,210,2012-10-09 13:53:00
10:53 AM,53.1,37.0,55,30.10,10.0,SSW,12.7,18.4,N/A,,Clear,200,2012-10-09 14:53:00
11:53 AM,55.0,36.0,49,30.08,10.0,SSW,9.2,19.6,N/A,,Clear,210,2012-10-09 15:53:00
12:53 PM,57.9,39.0,49,30.06,10.0,South,15.0,18.4,N/A,,Clear,190,2012-10-09 16:53:00
1:53 PM,59.0,39.0,48,30.02,10.0,SSW,13.8,20.7,N/A,,Clear,200,2012-10-09 17:53:00
2:53 PM,60.1,37.0,42,29.99,10.0,South,15.0,-,N/A,,Clear,180,2012-10-09 18:53:00
3:53 PM,61.0,36.0,39,29.96,10.0,South,16.1,24.2,N/A,,Clear,190,2012-10-09 19:53:00
4:53 PM,60.1,35.1,39,29.94,10.0,SSW,19.6,24.2,N/A,,Clear,210,2012-10-09 20:53:00
5:53 PM,59.0,34.0,39,29.93,10.0,South,13.8,25.3,N/A,,Clear,190,2012-10-09 21:53:00
6:53 PM,57.9,35.1,42,29.93,10.0,SSW,9.2,19.6,N/A,,Clear,200,2012-10-09 22:53:00
7:53 PM,57.0,36.0,45,29.92,10.0,SSW,11.5,-,N/A,,Clear,200,2012-10-09 23:53:00
8:53 PM,55.9,37.9,51,29.92,10.0,SSW,9.2,-,N/A,,Clear,200,2012-10-10 00:53:00
9:53 PM,55.9,37.9,51,29.91,10.0,SSW,10.4,-,N/A,,Clear,200,2012-10-10 01:53:00
10:53 PM,55.9,39.0,53,29.88,10.0,SSW,12.7,26.5,N/A,,Clear,200,2012-10-10 02:53:00
11:53 PM,55.9,39.0,53,29.86,10.0,SSW,13.8,28.8,N/A,,Clear,210,2012-10-10 03:53:00